SCP
0 0 0 0 -0 0 0 0 0 0 0 0 0 0 0 0 0 0 0 0 0 0 0 0 -0 -0 -0 0 0 0 0 0 0
0 0 0 0 0 0 -0 0 0 0 0 1 0 0 0 0 0 -0 0 0 0 0 0 0 -0 -0 0 0 0 0 -0 0 0
0 0 1 0 0 0 0 0 0 0 0 0 0 0 0 0 0 -0 -0 0 0 0 0 0 0 -0 -0 -0 0 0 -0 -0 0
0 0 0 0 0 0 1 0 0 0 0 0 0 1 0 0 0 0 0 0 0 0 0 0 0 0 -0 -0 -0 0 0 -0 0
0 0 0 0 0 0 0 0 0 1 0 0 0 0 1 0 0 0 0 0 0 0 0 0 -0 -0 0 -0 0 -0 0 -0 -0
0 0 0 0 0 0 0 0 0 0 0 0 0 1 0 1 1 0 0 0 0 0 0 0 0 0 -0 0 0 -0 -0 -0 -0
0 0 0 0 0 0 0 0 0 0 0 0 0 1 2 2 1 1 1 1 1 0 0 0 0 0 0 0 0 0 0 0 0
0 0 0 0 0 0 0 0 0 0 0 0 0 1 2 2 3 1 2 1 1 1 1 0 0 0 0 0 0 0 -0 -0 0
0 0 0 0 0 0 0 0 0 0 0 0 0 0 0 0 2 2 1 1 2 1 1 1 1 1 1 0 0 0 0 0 -0
0 0 0 0 0 0 0 0 0 0 0 0 0 0 0 0 0 0 2 2 2 2 3 2 2 1 1 1 1 0 0 0 0
0 0 0 0 0 0 0 0 0 0 0 0 0 0 0 0 0 0 0 0 3 2 3 3 3 2 2 1 1 1 0 0 0
0 0 0 0 0 0 0 0 0 0 0 0 0 0 0 0 0 0 0 0 0 0 2 2 3 2 2 2 2 1 0 0 0
0 0 0 0 0 0 0 0 0 0 0 0 0 0 0 0 0 0 0 0 0 0 0 1 1 2 2 1 1 1 1 0 1
0 0 0 0 0 0 0 0 0 0 0 0 0 0 0 0 0 0 0 0 0 0 0 0 0 0 1 1 1 1 1 0 2
0 0 0 0 0 0 0 0 0 0 0 0 0 0 0 0 0 0 0 0 0 0 0 0 0 0 0 0 1 1 1 0 0
0 0 0 0 0 0 0 0 0 0 0 0 0 0 0 0 0 0 0 0 0 0 0 0 0 0 0 0 1 0 0 0 0
0 0 0 0 0 0 0 0 0 0 0 0 0 0 0 0 0 0 0 0 0 0 0 0 0 0 0 0 0 1 0 1 1
0 0 0 0 0 0 0 0 0 0 0 0 0 0 0 0 0 0 0 0 0 0 0 0 0 0 0 0 0 0 0 0 0
0 0 0 0 0 0 0 0 0 0 0 0 0 0 0 0 0 0 0 0 0 0 0 0 0 0 0 0 0 0 0 0 0
0 0 0 0 0 0 0 0 0 0 0 0 0 0 0 0 0 0 0 0 0 0 0 0 0 0 -0 0 0 0 0 0 0
Wind_Speed_500mb
19 6 27 37 46 49 54 49 48 45 45 43 40 39 36 33 30 22 21 20 21 17 16 16 20 12 19 21 15 15 18 14 16
18 18 18 37 44 49 58 58 52 50 46 45 41 40 39 37 34 32 25 23 20 13 22 16 15 15 20 19 18 20 21 18 20
25 25 31 33 26 37 35 49 57 50 46 43 39 37 37 36 35 34 39 29 28 29 22 26 31 17 17 21 20 19 22 18 18
28 31 30 27 17 19 11 41 14 58 47 40 39 37 37 37 35 35 33 34 30 29 32 23 18 16 22 20 19 20 22 28 17
28 30 32 31 27 16 13 15 8 20 37 36 28 31 37 36 35 40 36 35 34 30 31 34 28 27 26 27 24 23 23 24 22
30 34 36 37 36 25 16 19 16 16 24 14 16 31 30 33 36 36 40 37 35 34 31 33 33 33 34 33 30 29 29 29 27
30 34 39 40 40 38 37 19 5 10 19 23 20 13 19 33 34 35 34 39 36 34 36 34 35 41 40 37 36 36 34 35 34
26 30 34 36 37 37 37 39 34 19 6 23 22 11 7 14 23 28 30 34 36 40 40 38 38 37 41 41 40 39 38 37 40
26 27 28 29 30 31 32 32 31 41 33 14 17 25 21 20 22 17 24 25 34 32 39 43 43 41 42 43 42 45 49 46 41
22 22 22 24 25 26 27 30 31 33 36 29 18 2 14 25 23 20 19 25 27 34 38 41 47 47 47 48 51 49 54 58 59
17 15 17 18 18 20 21 21 23 22 21 24 31 27 18 4 14 24 28 29 22 31 37 39 44 49 52 51 54 56 57 60 66
10 10 11 12 13 16 17 18 21 21 20 19 19 22 27 27 19 12 17 23 29 26 31 43 43 47 52 56 57 57 60 61 65
9 8 10 12 15 15 14 16 19 21 21 22 20 22 23 24 26 24 19 20 27 32 34 37 45 42 44 49 58 59 59 63 61
9 8 11 15 17 17 17 20 21 21 21 20 22 25 27 23 23 27 28 26 25 27 29 38 39 43 50 53 50 59 59 61 62
6 8 11 13 15 18 22 24 24 24 24 26 31 34 35 35 31 28 29 31 32 29 33 33 38 48 56 53 58 56 55 66 68
5 8 11 14 17 20 21 23 26 29 29 32 36 41 42 42 40 38 37 39 43 41 36 32 37 38 49 56 42 52 57 51 47
8 11 14 17 20 22 24 24 26 30 35 36 37 41 44 44 41 38 37 37 37 37 35 41 31 27 30 36 54 43 38 40 50
10 13 15 18 22 26 29 29 31 31 34 36 41 43 44 45 44 42 42 42 41 40 43 43 43 48 50 38 38 39 49 49 47
11 13 18 20 22 27 31 34 37 38 37 37 40 44 46 43 45 46 45 45 47 45 50 54 59 59 59 59 58 55 48 60 75
12 16 20 21 26 28 31 33 40 41 41 40 41 46 48 49 48 50 50 51 50 51 47 49 54 55 59 58 60 58 59 55 57
Wind_Direction_500mb
8 288 198 202 204 195 199 197 191 195 196 203 203 207 215 219 217 213 209 216 210 226 222 189 209 238 198 186 205 195 218 217 213
26 6 285 197 207 216 204 194 196 197 199 210 204 207 213 219 221 208 213 217 229 224 224 186 218 203 203 195 203 201 225 200 216
31 35 28 159 199 218 230 200 198 200 203 206 205 206 212 212 214 219 207 214 213 216 221 238 218 179 203 207 208 208 202 214 240
42 45 43 55 61 161 192 222 208 189 200 203 209 202 211 214 213 214 215 214 218 219 211 223 227 214 207 217 220 218 218 194 228
52 51 53 51 48 106 117 163 169 109 182 206 207 227 214 211 215 207 217 214 216 215 217 220 220 222 220 217 224 233 236 224 222
69 60 57 57 59 68 84 164 211 145 172 170 195 205 211 217 215 219 211 218 215 217 219 220 224 224 223 227 223 230 236 237 233
83 75 67 61 61 61 63 73 216 253 211 196 173 161 198 213 213 218 218 219 218 224 222 224 225 225 230 228 226 235 231 236 241
99 84 75 69 65 59 56 50 47 58 180 200 224 169 243 209 217 224 218 217 220 221 229 232 233 232 231 233 233 232 240 233 237
103 90 80 72 66 59 52 50 44 33 34 67 206 223 226 200 209 214 223 226 219 227 226 226 234 235 234 235 236 239 237 237 240
107 93 80 70 62 54 47 40 37 36 17 26 48 118 230 247 243 203 214 224 226 229 225 226 231 236 238 239 245 238 236 242 242
105 85 71 61 53 42 37 34 29 32 34 18 17 14 17 357 246 242 235 226 235 243 234 234 234 235 238 241 245 245 243 241 245
101 69 51 37 27 18 17 16 7 7 14 10 11 6 6 4 356 299 256 240 238 239 252 246 241 242 243 244 244 244 248 248 246
101 56 23 7 3 1 355 353 348 344 346 349 349 349 345 343 343 343 329 289 263 256 261 258 248 245 249 251 251 248 248 250 245
84 52 19 3 352 349 341 338 333 330 325 322 317 318 319 323 318 318 325 324 318 285 264 262 261 264 261 254 256 254 250 251 252
45 13 355 347 341 332 330 328 324 319 313 306 302 299 299 302 307 306 299 300 304 311 308 289 275 263 267 271 268 255 251 250 253
347 334 327 324 320 319 320 315 314 311 308 305 302 297 293 291 292 296 297 291 290 302 304 304 309 298 275 267 268 262 258 256 265
305 312 314 316 317 317 316 314 308 305 307 307 302 295 292 291 289 287 284 285 284 280 285 289 285 280 285 275 256 259 271 253 255
297 306 310 310 311 312 311 311 305 301 299 299 298 295 290 284 282 280 278 277 275 272 270 271 274 277 278 280 278 264 255 250 247
291 295 305 311 307 304 304 306 305 305 303 297 293 288 288 284 278 274 272 270 272 275 278 277 280 274 276 275 282 288 278 258 249
280 301 301 304 302 300 305 308 300 307 307 296 287 282 280 281 277 272 268 267 269 272 273 277 281 287 277 269 274 280 285 288 277
Wind_Speed_850mb
19 6 27 37 46 49 54 49 48 45 45 43 40 39 36 33 30 22 21 20 21 17 16 16 20 12 19 21 15 15 18 14 16
18 18 18 37 44 49 58 58 52 50 46 45 41 40 39 37 34 32 25 23 20 13 22 16 15 15 20 19 18 20 21 18 20
25 25 31 33 26 37 35 49 57 50 46 43 39 37 37 36 35 34 39 29 28 29 22 26 31 17 17 21 20 19 22 18 18
28 31 30 27 17 19 11 41 14 58 47 40 39 37 37 37 35 35 33 34 30 29 32 23 18 16 22 20 19 20 22 28 17
28 30 32 31 27 16 13 15 8 20 37 36 28 31 37 36 35 40 36 35 34 30 31 34 28 27 26 27 24 23 23 24 22
30 34 36 37 36 25 16 19 16 16 24 14 16 31 30 33 36 36 40 37 35 34 31 33 33 33 34 33 30 29 29 29 27
30 34 39 40 40 38 37 19 5 10 19 23 20 13 19 33 34 35 34 39 36 34 36 34 35 41 40 37 36 36 34 35 34
26 30 34 36 37 37 37 39 34 19 6 23 22 11 7 14 23 28 30 34 36 40 40 38 38 37 41 41 40 39 38 37 40
26 27 28 29 30 31 32 32 31 41 33 14 17 25 21 20 22 17 24 25 34 32 39 43 43 41 42 43 42 45 49 46 41
22 22 22 24 25 26 27 30 31 33 36 29 18 2 14 25 23 20 19 25 27 34 38 41 47 47 47 48 51 49 54 58 59
17 15 17 18 18 20 21 21 23 22 21 24 31 27 18 4 14 24 28 29 22 31 37 39 44 49 52 51 54 56 57 60 66
10 10 11 12 13 16 17 18 21 21 20 19 19 22 27 27 19 12 17 23 29 26 31 43 43 47 52 56 57 57 60 61 65
9 8 10 12 15 15 14 16 19 21 21 22 20 22 23 24 26 24 19 20 27 32 34 37 45 42 44 49 58 59 59 63 61
9 8 11 15 17 17 17 20 21 21 21 20 22 25 27 23 23 27 28 26 25 27 29 38 39 43 50 53 50 59 59 61 62
6 8 11 13 15 18 22 24 24 24 24 26 31 34 35 35 31 28 29 31 32 29 33 33 38 48 56 53 58 56 55 66 68
5 8 11 14 17 20 21 23 26 29 29 32 36 41 42 42 40 38 37 39 43 41 36 32 37 38 49 56 42 52 57 51 47
8 11 14 17 20 22 24 24 26 30 35 36 37 41 44 44 41 38 37 37 37 37 35 41 31 27 30 36 54 43 38 40 50
10 13 15 18 22 26 29 29 31 31 34 36 41 43 44 45 44 42 42 42 41 40 43 43 43 48 50 38 38 39 49 49 47
11 13 18 20 22 27 31 34 37 38 37 37 40 44 46 43 45 46 45 45 47 45 50 54 59 59 59 59 58 55 48 60 75
12 16 20 21 26 28 31 33 40 41 41 40 41 46 48 49 48 50 50 51 50 51 47 49 54 55 59 58 60 58 59 55 57
Wind_Direction_850mb
8 288 198 202 204 195 199 197 191 195 196 203 203 207 215 219 217 213 209 216 210 226 222 189 209 238 198 186 205 195 218 217 213
26 6 285 197 207 216 204 194 196 197 199 210 204 207 213 219 221 208 213 217 229 224 224 186 218 203 203 195 203 201 225 200 216
31 35 28 159 199 218 230 200 198 200 203 206 205 206 212 212 214 219 207 214 213 216 221 238 218 179 203 207 208 208 202 214 240
42 45 43 55 61 161 192 222 208 189 200 203 209 202 211 214 213 214 215 214 218 219 211 223 227 214 207 217 220 218 218 194 228
52 51 53 51 48 106 117 163 169 109 182 206 207 227 214 211 215 207 217 214 216 215 217 220 220 222 220 217 224 233 236 224 222
69 60 57 57 59 68 84 164 211 145 172 170 195 205 211 217 215 219 211 218 215 217 219 220 224 224 223 227 223 230 236 237 233
83 75 67 61 61 61 63 73 216 253 211 196 173 161 198 213 213 218 218 219 218 224 222 224 225 225 230 228 226 235 231 236 241
99 84 75 69 65 59 56 50 47 58 180 200 224 169 243 209 217 224 218 217 220 221 229 232 233 232 231 233 233 232 240 233 237
103 90 80 72 66 59 52 50 44 33 34 67 206 223 226 200 209 214 223 226 219 227 226 226 234 235 234 235 236 239 237 237 240
107 93 80 70 62 54 47 40 37 36 17 26 48 118 230 247 243 203 214 224 226 229 225 226 231 236 238 239 245 238 236 242 242
105 85 71 61 53 42 37 34 29 32 34 18 17 14 17 357 246 242 235 226 235 243 234 234 234 235 238 241 245 245 243 241 245
101 69 51 37 27 18 17 16 7 7 14 10 11 6 6 4 356 299 256 240 238 239 252 246 241 242 243 244 244 244 248 248 246
101 56 23 7 3 1 355 353 348 344 346 349 349 349 345 343 343 343 329 289 263 256 261 258 248 245 249 251 251 248 248 250 245
84 52 19 3 352 349 341 338 333 330 325 322 317 318 319 323 318 318 325 324 318 285 264 262 261 264 261 254 256 254 250 251 252
45 13 355 347 341 332 330 328 324 319 313 306 302 299 299 302 307 306 299 300 304 311 308 289 275 263 267 271 268 255 251 250 253
347 334 327 324 320 319 320 315 314 311 308 305 302 297 293 291 292 296 297 291 290 302 304 304 309 298 275 267 268 262 258 256 265
305 312 314 316 317 317 316 314 308 305 307 307 302 295 292 291 289 287 284 285 284 280 285 289 285 280 285 275 256 259 271 253 255
297 306 310 310 311 312 311 311 305 301 299 299 298 295 290 284 282 280 278 277 275 272 270 271 274 277 278 280 278 264 255 250 247
291 295 305 311 307 304 304 306 305 305 303 297 293 288 288 284 278 274 272 270 272 275 278 277 280 274 276 275 282 288 278 258 249
280 301 301 304 302 300 305 308 300 307 307 296 287 282 280 281 277 272 268 267 269 272 273 277 281 287 277 269 274 280 285 288 277